Regional Weather Roundup
Issued by NWS Portland, ME

Current Version | Previous Version | Text Only | Print | Product List | Glossary Off
Versions: 1 2 3 4 5 6 7 8 9 10 11 12 13 14 15 16 17 18 19 20 21 22 23 24 25 26 27 28 29 30 31 32 33 34 35 36 37 38 39 40 41 42 43 44 45 46 47 48 49 50
000 ASUS41 KGYX 162110 RWRGYX WEATHER ROUNDUP FOR MAINE AND NEW HAMPSHIRE NATIONAL WEATHER SERVICE GRAY ME 500 PM EDT WED AUG 16 2017 MEZ002-005-006-010-012-015-018-020-021-024-026-027-029-162200- MAINE CITY SKY/WX TMP DP RH WIND PRES REMARKS PORTLAND MOSUNNY 79 46 31 NW13 29.90S SANFORD MOSUNNY 78 50 37 W9G17 29.92S BAR HARBOR SUNNY 75 44 33 NW9 29.86S WISCASSET SUNNY 79 44 28 MISG 29.91S ROCKLAND SUNNY 76 51 41 NW9G18 29.88R FRYEBURG SUNNY 75 45 34 NW8 29.94S LEWISTONAUBURN SUNNY 76 47 35 NW13G18 29.92S AUGUSTA SUNNY 74 39 28 NW13G23 29.91F WATERVILLE SUNNY 73 46 38 W10 29.88F BANGOR MOSUNNY 75 42 30 NW17G24 29.88S GREENVILLE N/A 64 45 49 NW16 29.91R MILLINOCKET SUNNY 71 44 37 NW16G23 29.88S HOULTON SUNNY 71 45 39 W13G20 29.83S PRESQUE ISLE MOSUNNY 68 42 38 NW13G20 29.86S FRENCHVILLE PTSUNNY 63 40 42 NW14G25 29.85S CARIBOU SUNNY 67 42 40 W8G20 29.84S $$ NHZ002-005-008-009-011-012-014-162200- NEW HAMPSHIRE CITY SKY/WX TMP DP RH WIND PRES REMARKS PORTSMOUTH PTSUNNY 80 51 36 NW17 29.90R ROCHESTER SUNNY 78 49 35 NW8 29.92S NASHUA SUNNY 80 58 46 NW12 29.93S MANCHESTER PTSUNNY 80 52 37 NW10G21 29.92R CONCORD SUNNY 79 51 37 W10G22 29.94S LACONIA SUNNY 74 47 38 W8G17 29.96S PLYMOUTH FAIR 74 47 38 NW8 29.96S BERLIN SUNNY 70 42 36 W8 29.97F WHITEFIELD MOSUNNY 70 46 42 W10 29.97F JAFFREY MOSUNNY 77 56 48 NW8 29.98R KEENE N/A N/A N/A N/A MISG N/A LEBANON SUNNY 76 48 37 N8 29.97S MT WASHINGTON MOSUNNY 43 39 87 NW40G47 N/A $$ VTZ005-007-008-162200- VERMONT CITY SKY/WX TMP DP RH WIND PRES REMARKS ST JOHNSBURY N/A 71 46 40 MISG 29.97F MONTPELIER SUNNY 68 48 48 W9G17 30.04S BURLINGTON MOSUNNY 75 46 35 N12 30.00S $$ MAZ007-012-024-CTZ003-RIZ002-NYZ038-NYZ072-162200- SOUTHERN NEW ENGLAND AND NY CITY SKY/WX TMP DP RH WIND PRES REMARKS BOSTON PTSUNNY 83 56 39 NW15G21 29.90F WORCESTER SUNNY 78 54 43 NW7 29.97S NANTUCKET SUNNY 78 63 59 MISG 29.91F PROVIDENCE PTSUNNY 84 59 42 N8 29.92R HARTFORD MOSUNNY 84 58 40 N9 29.94R ALBANY PTSUNNY 81 54 39 NW15 29.96S NEW YORK CITY PTSUNNY 85 62 46 N3 29.94F $$ ANZ081-ANZ082-ANZ150-NHZ014-MEZ023>029-162200- COASTAL MARINE OBSERVATIONS STATION/POSITION TIME TEMP WIND PRES WAVE AIR SEA DIR/SP/G HT/PER (UTC) (F) (DEG/KT/KT) (MB) (FT/S) MOUNT DESERT ROC 2100 65 1011.1R MATINICUS ROCK 2000 67 330/ 4/ 5 1011.2F ISLE OF SHOALS 2000 76 310/ 19/ 20 1012.1F JEFFREYS LEDGE 2006 69 N/A 2/13 CASHES LEDGE BUO 2050 73 69 1011.8R 4/12 GEORGES BANK BUO 1950 65 65 1009.2 9/13 $$ .............KEY.............. WCI - WIND CHILL TC - TEMPERATURE IN CELSIUS VSB - VISIBILITY IN MILES HX - HEAT INDEX FAIR- INDICATES FEW OR NO CLOUDS BELOW 12,000 FT, WITH NO SIGNIFICANT WEATHER AND/OR OBSTRUCTIONS TO VISIBILITY.

USA.gov is the U.S. government's official web portal to all federal, state and local government web resources and services.